Location: Hohenfelde
(53.8441°N, 9.6220°E)
Time: 10:57:25
(UTC+00:00)

IRAS Rocket - Pass Details

Date: 14 July 2020
Orbit: 848 x 877 km, 100.1° (Epoch: 12 August)

Event Time Altitude Azimuth Distance (km) Brightness Sun altitude
Exits shadow 00:12:01 11° 151° (SSE) 2,374 6.1 -13.9°
Maximum altitude 00:17:13 73° 68° (ENE) 893 4.4 -13.8°
Drops below altitude 10° 00:22:44 10° 345° (NNW) 2,498 7.7 -13.6°
Sets 00:25:07 0° 343° (NNW) 3,442 8.5 -13.5°
